﻿_id,日時,平均風速(m/s),平均風向,最大瞬間風速(m/s),最大風速時風向,気温(℃),湿度(%),10分間移動積算雨量(mm),1時間移動積算雨量(mm),日雨量(mm),累計雨量(mm)
1,2024-05-20T00:00:00,0.3,東北東,1.1,北北東,14.2,,0,1,1.5,1.5
2,2024-05-20T00:01:00,0.3,東北東,0.8,東北東,14.3,,0,1,0,1.5
3,2024-05-20T00:02:00,0.2,静穏,0.8,東北東,14.4,,0.5,1.5,0.5,2
4,2024-05-20T00:03:00,0.2,静穏,0.8,東北東,14.4,,0.5,1.5,0.5,2
5,2024-05-20T00:04:00,0.1,静穏,0.8,東北東,14.4,,0.5,1.5,0.5,2
6,2024-05-20T00:05:00,0.1,静穏,0.6,東北東,14.5,,0.5,1.5,0.5,2
7,2024-05-20T00:06:00,0.1,静穏,0.6,東北東,14.5,,0.5,1.5,0.5,2
8,2024-05-20T00:07:00,0.1,静穏,0.6,東北東,14.5,,0.5,1.5,0.5,2
9,2024-05-20T00:08:00,0.1,静穏,0.6,東北東,14.6,,0.5,1.5,0.5,2
10,2024-05-20T00:09:00,0.1,静穏,0.6,東北東,14.6,,0.5,1.5,0.5,2
11,2024-05-20T00:10:00,0.1,静穏,0.6,北西,14.5,,0.5,1.5,0.5,2
12,2024-05-20T00:11:00,0.1,静穏,0.6,北西,14.7,,0.5,1.5,0.5,2
13,2024-05-20T00:12:00,0.2,静穏,0.6,北西,14.7,,0,1.5,0.5,2
14,2024-05-20T00:13:00,0.2,静穏,0.6,北西,14.8,,0,1.5,0.5,2
15,2024-05-20T00:14:00,0.1,静穏,0.6,北西,14.8,,0,1.5,0.5,2
16,2024-05-20T00:15:00,0.1,静穏,0.6,北西,14.5,,0,1.5,0.5,2
17,2024-05-20T00:16:00,0.1,静穏,0.6,北西,14.4,,0,1,0.5,2
18,2024-05-20T00:17:00,0.1,静穏,0.6,北西,14.6,,0.5,1.5,1,2.5
19,2024-05-20T00:18:00,0.2,静穏,0.8,北北西,14.6,,0.5,1.5,1,2.5
20,2024-05-20T00:19:00,0.2,静穏,0.9,北北西,14.6,,0.5,1.5,1,2.5
21,2024-05-20T00:20:00,0.3,北北西,0.9,北北西,14.6,,0.5,1.5,1,2.5
22,2024-05-20T00:21:00,0.3,北北西,1,北北西,14.6,,0.5,1.5,1,2.5
23,2024-05-20T00:22:00,0.4,北北西,1.7,北北西,14.5,,0.5,1.5,1,2.5
24,2024-05-20T00:23:00,0.6,北北西,1.9,北北西,14.5,,0.5,1.5,1,2.5
25,2024-05-20T00:24:00,0.7,北北西,2,北北西,14.5,,0.5,1.5,1,2.5
26,2024-05-20T00:25:00,0.8,北北西,2,北北西,14.4,,0.5,1.5,1,2.5
27,2024-05-20T00:26:00,0.9,北北西,2,北北西,14.4,,0.5,1.5,1,2.5
28,2024-05-20T00:27:00,1,北西,2,北北西,14.4,,0,1.5,1,2.5
29,2024-05-20T00:28:00,1,北西,2,北北西,14.4,,0,1.5,1,2.5
30,2024-05-20T00:29:00,1,北西,2,北北西,14.4,,0,1.5,1,2.5
31,2024-05-20T00:30:00,1,北北西,2,北北西,14.4,,0,1.5,1,2.5
32,2024-05-20T00:31:00,1,北北西,2,北北西,14.5,,0,1.5,1,2.5
33,2024-05-20T00:32:00,0.9,北西,2,北北西,14.5,,0,1.5,1,2.5
34,2024-05-20T00:33:00,0.8,北西,2,北北西,14.4,,0,1.5,1,2.5
35,2024-05-20T00:34:00,0.7,北西,1.9,北西,14.5,,0,1.5,1,2.5
36,2024-05-20T00:35:00,0.8,北西,1.9,北西,14.5,,0,1.5,1,2.5
37,2024-05-20T00:36:00,0.7,北西,1.8,北北西,14.5,,0,1.5,1,2.5
38,2024-05-20T00:37:00,0.7,北西,1.8,北北西,14.5,,0,1.5,1,2.5
39,2024-05-20T00:38:00,0.8,北北西,2,北北西,14.5,,0,1.5,1,2.5
40,2024-05-20T00:39:00,0.8,北北西,2,北北西,14.5,,0,1.5,1,2.5
41,2024-05-20T00:40:00,0.9,北西,2.2,北北西,14.4,,0,1.5,1,2.5
42,2024-05-20T00:41:00,1,北西,2.2,北北西,14.4,,0,1.5,1,2.5
43,2024-05-20T00:42:00,0.9,北西,2.2,北北西,14.5,,0,1.5,1,2.5
44,2024-05-20T00:43:00,0.8,北西,2.2,北北西,14.6,,0,1,1,2.5
45,2024-05-20T00:44:00,0.8,北西,2.2,北北西,14.6,,0,1,1,2.5
46,2024-05-20T00:45:00,0.9,北西,2.2,北北西,14.5,,0,1,1,2.5
47,2024-05-20T00:46:00,0.9,北西,2.2,北北西,14.5,,0,1,1,2.5
48,2024-05-20T00:47:00,0.9,北西,2.2,北北西,14.5,,0,1,1,2.5
49,2024-05-20T00:48:00,0.8,北西,2.2,北北西,14.5,,0,1,1,2.5
50,2024-05-20T00:49:00,0.8,北西,2.2,北北西,14.4,,0,1,1,2.5
51,2024-05-20T00:50:00,0.8,北西,1.8,北西,14.3,,0,1,1,2.5
52,2024-05-20T00:51:00,0.8,北北西,1.8,北西,14.3,,0.5,1.5,1.5,3
53,2024-05-20T00:52:00,0.8,北北西,1.8,北西,14.3,,0.5,1.5,1.5,3
54,2024-05-20T00:53:00,0.8,北北西,1.8,北西,14.2,,0.5,1.5,1.5,3
55,2024-05-20T00:54:00,0.8,北北西,1.8,北西,14.2,,0.5,1.5,1.5,3
56,2024-05-20T00:55:00,0.7,北北西,1.8,北西,14.3,,0.5,1.5,1.5,3
57,2024-05-20T00:56:00,0.7,北北西,1.8,北西,14.4,,0.5,1.5,1.5,3
58,2024-05-20T00:57:00,0.6,北北西,1.8,北西,14.5,,0.5,1.5,1.5,3
59,2024-05-20T00:58:00,0.7,北北西,1.8,北西,14.5,,0.5,1.5,1.5,3
60,2024-05-20T00:59:00,0.6,北北西,1.7,西北西,14.5,,0.5,1.5,1.5,3
61,2024-05-20T01:00:00,0.6,北北西,1.7,西北西,14.6,,0.5,1.5,1.5,3
62,2024-05-20T01:01:00,0.6,北北西,1.7,西北西,14.5,,0,1.5,1.5,3
63,2024-05-20T01:02:00,0.6,北北西,1.7,西北西,14.4,,0,1,1.5,3
64,2024-05-20T01:03:00,0.5,北北西,1.7,西北西,14.3,,0,1,1.5,3
65,2024-05-20T01:04:00,0.5,北北西,1.7,西北西,14.3,,0,1,1.5,3
66,2024-05-20T01:05:00,0.5,北西,1.7,西北西,14.5,,0,1,1.5,3
67,2024-05-20T01:06:00,0.5,北西,1.7,西北西,14.6,,0,1,1.5,3
68,2024-05-20T01:07:00,0.4,北西,1.6,西北西,14.6,,0,1,1.5,3
69,2024-05-20T01:08:00,0.3,北北西,1.1,北西,14.6,,0,1,1.5,3
70,2024-05-20T01:09:00,0.2,静穏,1,北北西,14.6,,0,1,1.5,3
71,2024-05-20T01:10:00,0.1,静穏,1,北北西,14.6,,0,1,1.5,3
72,2024-05-20T01:11:00,0.1,静穏,1,北北西,14.6,,0,1,1.5,3
73,2024-05-20T01:12:00,0.1,静穏,0.6,北,14.6,,0,1,1.5,3
74,2024-05-20T01:13:00,0.1,静穏,0.8,北北西,14.7,,0,1,1.5,3
75,2024-05-20T01:14:00,0.1,静穏,0.8,北北西,14.7,,0,1,1.5,3
76,2024-05-20T01:15:00,0.2,静穏,1.2,西,14.7,,0,1,1.5,3
77,2024-05-20T01:16:00,0.2,静穏,1.2,西,14.7,,0,1,1.5,3
78,2024-05-20T01:17:00,0.2,静穏,1.2,西,14.7,,0,0.5,1.5,3
79,2024-05-20T01:18:00,0.3,西北西,1.2,西,14.6,,0,0.5,1.5,3
80,2024-05-20T01:19:00,0.4,西北西,1.8,西北西,14.6,,0,0.5,1.5,3
81,2024-05-20T01:20:00,0.5,西北西,1.8,西北西,14.6,,0,0.5,1.5,3
82,2024-05-20T01:21:00,0.7,西北西,1.8,西北西,14.6,,0.5,1,2,3.5
83,2024-05-20T01:22:00,0.8,西北西,1.8,西北西,14.6,,0.5,1,2,3.5
84,2024-05-20T01:23:00,0.8,西,1.8,西北西,14.7,,0.5,1,2,3.5
85,2024-05-20T01:24:00,0.9,西,1.8,西北西,14.8,,0.5,1,2,3.5
86,2024-05-20T01:25:00,0.9,西,1.8,西北西,14.7,,0.5,1,2,3.5
87,2024-05-20T01:26:00,0.9,西,1.8,西北西,14.7,,0.5,1,2,3.5
88,2024-05-20T01:27:00,0.9,西,1.8,西北西,14.7,,0.5,1,2,3.5
89,2024-05-20T01:28:00,0.9,西,1.8,西北西,14.7,,0.5,1,2,3.5
90,2024-05-20T01:29:00,0.9,西,1.8,西北西,14.7,,0.5,1,2,3.5
91,2024-05-20T01:30:00,0.9,西,1.8,西北西,14.6,,0.5,1,2,3.5
92,2024-05-20T01:31:00,0.8,西,1.6,西,14.6,,0,1,2,3.5
93,2024-05-20T01:32:00,0.7,西,1.3,西,14.7,,0,1,2,3.5
94,2024-05-20T01:33:00,0.7,西,1.5,西北西,14.6,,0,1,2,3.5
95,2024-05-20T01:34:00,0.7,西北西,1.5,西北西,14.6,,0,1,2,3.5
96,2024-05-20T01:35:00,0.7,西北西,1.5,西北西,14.6,,0,1,2,3.5
97,2024-05-20T01:36:00,0.8,西北西,1.7,西,14.7,,0,1,2,3.5
98,2024-05-20T01:37:00,0.9,西北西,2,西,14.7,,0,1,2,3.5
99,2024-05-20T01:38:00,0.9,西,2,西,14.7,,0,1,2,3.5
100,2024-05-20T01:39:00,0.9,西,2,西,14.6,,0,1,2,3.5
101,2024-05-20T01:40:00,0.9,西,2,西,14.6,,0,1,2,3.5
102,2024-05-20T01:41:00,0.9,西,2,西,14.7,,0,1,2,3.5
103,2024-05-20T01:42:00,0.9,西,2,西,14.7,,0,1,2,3.5
104,2024-05-20T01:43:00,0.8,西,2,西,14.6,,0,1,2,3.5
105,2024-05-20T01:44:00,0.8,西,2,西,14.6,,0,1,2,3.5
106,2024-05-20T01:45:00,0.9,西,2,西,14.7,,0,1,2,3.5
107,2024-05-20T01:46:00,0.8,西,2,西,14.7,,0,1,2,3.5
108,2024-05-20T01:47:00,0.8,西,1.9,西,14.7,,0,1,2,3.5
109,2024-05-20T01:48:00,0.8,西,1.8,西北西,14.6,,0,1,2,3.5
110,2024-05-20T01:49:00,0.8,西,1.8,西北西,14.6,,0,1,2,3.5
111,2024-05-20T01:50:00,0.8,西,1.8,西北西,14.6,,0,1,2,3.5
112,2024-05-20T01:51:00,0.8,西,1.8,西北西,14.7,,0,0.5,2,3.5
113,2024-05-20T01:52:00,0.8,西,1.8,西北西,14.7,,0,0.5,2,3.5
114,2024-05-20T01:53:00,0.8,西南西,1.8,西北西,14.7,,0,0.5,2,3.5
115,2024-05-20T01:54:00,0.7,西南西,1.8,西北西,14.4,,0,0.5,2,3.5
116,2024-05-20T01:55:00,0.6,西南西,1.8,西北西,14.3,,0,0.5,2,3.5
117,2024-05-20T01:56:00,0.5,南西,1.8,西北西,14.3,,0,0.5,2,3.5
118,2024-05-20T01:57:00,0.4,南西,1.8,西北西,14.6,,0,0.5,2,3.5
119,2024-05-20T01:58:00,0.3,南西,1.3,西,14.5,,0,0.5,2,3.5
120,2024-05-20T01:59:00,0.3,南西,1.2,西南西,14.6,,0,0.5,2,3.5
121,2024-05-20T02:00:00,0.2,静穏,1,西北西,14.7,,0,0.5,2,3.5
122,2024-05-20T02:01:00,0.2,静穏,0.9,南西,14.7,,0,0.5,2,3.5
123,2024-05-20T02:02:00,0.2,静穏,0.9,南西,14.7,,0,0.5,2,3.5
124,2024-05-20T02:03:00,0.2,静穏,1.1,北西,14.7,,0,0.5,2,3.5
125,2024-05-20T02:04:00,0.3,西南西,1.1,北西,14.7,,0,0.5,2,3.5
126,2024-05-20T02:05:00,0.4,西,1.2,北西,14.5,,0,0.5,2,3.5
127,2024-05-20T02:06:00,0.5,西,1.2,北西,14.5,,0,0.5,2,3.5
128,2024-05-20T02:07:00,0.5,西北西,1.7,北西,14.5,,0,0.5,2,3.5
129,2024-05-20T02:08:00,0.6,西北西,1.7,北西,14.6,,0,0.5,2,3.5
130,2024-05-20T02:09:00,0.6,北西,1.8,西北西,14.5,,0,0.5,2,3.5
131,2024-05-20T02:10:00,0.8,北西,2.1,北西,14.5,,0,0.5,2,3.5
132,2024-05-20T02:11:00,0.9,北西,2.2,北北西,14.5,,0,0.5,2,3.5
133,2024-05-20T02:12:00,1,北西,2.2,北北西,14.5,,0,0.5,2,3.5
134,2024-05-20T02:13:00,1,北西,2.2,北北西,14.5,,0,0.5,2,3.5
135,2024-05-20T02:14:00,1.1,北西,2.2,北北西,14.5,,0,0.5,2,3.5
136,2024-05-20T02:15:00,1.1,北西,2.2,北北西,14.5,,0,0.5,2,3.5
137,2024-05-20T02:16:00,1.1,北西,2.2,北北西,14.6,,0,0.5,2,3.5
138,2024-05-20T02:17:00,1.1,西北西,2.2,北北西,14.5,,0,0.5,2,3.5
139,2024-05-20T02:18:00,1.1,北西,2.2,北北西,14.6,,0,0.5,2,3.5
140,2024-05-20T02:19:00,1.2,西北西,2.2,北北西,14.5,,0,0.5,2,3.5
141,2024-05-20T02:20:00,1.1,西北西,2.2,北北西,14.5,,0,0.5,2,3.5
142,2024-05-20T02:21:00,0.9,西北西,2.2,西北西,14.5,,0,0,2,3.5
143,2024-05-20T02:22:00,0.9,北西,2.2,西北西,14.7,,0,0,2,3.5
144,2024-05-20T02:23:00,0.9,北西,2.2,西北西,14.5,,0,0,2,3.5
145,2024-05-20T02:24:00,0.7,北西,1.9,西北西,14.6,,0,0,2,3.5
146,2024-05-20T02:25:00,0.7,北西,1.6,北西,14.6,,0,0,2,3.5
147,2024-05-20T02:26:00,0.6,北西,1.6,北西,14.6,,0,0,2,3.5
148,2024-05-20T02:27:00,0.6,北西,1.6,北西,14.6,,0,0,2,3.5
149,2024-05-20T02:28:00,0.6,北西,1.3,北西,14.6,,0,0,2,3.5
150,2024-05-20T02:29:00,0.6,北西,1.3,北西,14.5,,0,0,2,3.5
151,2024-05-20T02:30:00,0.5,北西,1.2,西北西,14.5,,0,0,2,3.5
152,2024-05-20T02:31:00,0.5,北西,1.2,西北西,14.7,,0,0,2,3.5
153,2024-05-20T02:32:00,0.6,北西,1.3,北北西,14.6,,0,0,2,3.5
154,2024-05-20T02:33:00,0.7,北西,1.3,北北西,14.5,,0,0,2,3.5
155,2024-05-20T02:34:00,0.7,北西,1.3,北北西,14.4,,0,0,2,3.5
156,2024-05-20T02:35:00,0.6,北西,1.3,北北西,14.4,,0,0,2,3.5
157,2024-05-20T02:36:00,0.6,北北西,1.3,北北西,14.6,,0,0,2,3.5
158,2024-05-20T02:37:00,0.5,北北西,1.3,北北西,14.6,,0,0,2,3.5
159,2024-05-20T02:38:00,0.5,北北西,1.3,北北西,14.5,,0,0,2,3.5
160,2024-05-20T02:39:00,0.5,北北西,1.3,北北西,14.4,,0,0,2,3.5
161,2024-05-20T02:40:00,0.5,北,1.3,北北西,14.4,,0,0,2,3.5
162,2024-05-20T02:41:00,0.6,北,1.3,北北西,14.4,,0,0,2,3.5
163,2024-05-20T02:42:00,0.5,北,1.2,北,14.4,,0,0,2,3.5
164,2024-05-20T02:43:00,0.4,北,1.2,北,14.5,,0,0,2,3.5
165,2024-05-20T02:44:00,0.4,北,1.2,北,14.5,,0,0,2,3.5
166,2024-05-20T02:45:00,0.4,北,1.2,北,14.5,,0,0,2,3.5
167,2024-05-20T02:46:00,0.4,北,1.2,北,14.6,,0,0,2,3.5
168,2024-05-20T02:47:00,0.3,北,1,北西,14.4,,0,0,2,3.5
169,2024-05-20T02:48:00,0.3,北,1,北西,14.6,,0,0,2,3.5
170,2024-05-20T02:49:00,0.3,北北西,1,北西,14.6,,0,0,2,3.5
171,2024-05-20T02:50:00,0.3,北北西,1.2,北西,14.5,,0,0,2,3.5
172,2024-05-20T02:51:00,0.3,北北西,1.2,北西,14.5,,0,0,2,3.5
173,2024-05-20T02:52:00,0.4,北北西,1.8,西北西,14.4,,0,0,2,3.5
174,2024-05-20T02:53:00,0.5,北北西,1.8,西北西,14.4,,0,0,2,3.5
175,2024-05-20T02:54:00,0.6,北西,1.8,西北西,14.4,,0,0,2,3.5
176,2024-05-20T02:55:00,0.6,北西,1.8,西北西,14.4,,0,0,2,3.5
177,2024-05-20T02:56:00,0.8,北西,1.8,西北西,14.4,,0,0,2,3.5
178,2024-05-20T02:57:00,0.9,北西,1.8,西北西,14.4,,0,0,2,3.5
179,2024-05-20T02:58:00,0.9,北西,1.8,西北西,14.5,,0,0,2,3.5
180,2024-05-20T02:59:00,0.9,北西,1.8,西北西,14.6,,0,0,2,3.5
181,2024-05-20T03:00:00,0.9,西北西,1.8,西北西,14.6,,0,0,2,3.5
182,2024-05-20T03:01:00,0.9,西北西,1.8,西北西,14.7,,0,0,2,3.5
183,2024-05-20T03:02:00,0.8,西北西,1.8,西北西,14.7,,0,0,2,3.5
184,2024-05-20T03:03:00,0.7,西北西,1.8,西北西,14.7,,0,0,2,3.5
185,2024-05-20T03:04:00,0.7,西,1.8,西北西,14.7,,0,0,2,3.5
186,2024-05-20T03:05:00,0.8,西,1.8,西北西,14.6,,0,0,2,3.5
187,2024-05-20T03:06:00,0.7,西,1.6,西,14.6,,0,0,2,3.5
188,2024-05-20T03:07:00,0.6,西,1.6,西,14.7,,0,0,2,3.5
189,2024-05-20T03:08:00,0.7,西,1.6,西,14.7,,0,0,2,3.5
190,2024-05-20T03:09:00,0.6,西,1.6,西,14.7,,0,0,2,3.5
191,2024-05-20T03:10:00,0.6,西南西,1.6,西,14.7,,0,0,2,3.5
192,2024-05-20T03:11:00,0.6,西南西,1.6,西,14.6,,0,0,2,3.5
193,2024-05-20T03:12:00,0.6,西南西,1.6,西,14.6,,0,0,2,3.5
194,2024-05-20T03:13:00,0.6,西南西,1.6,西,14.6,,0,0,2,3.5
195,2024-05-20T03:14:00,0.5,南西,1.6,西,14.6,,0,0,2,3.5
196,2024-05-20T03:15:00,0.4,南西,1.3,西,14.5,,0,0,2,3.5
197,2024-05-20T03:16:00,0.4,南西,1.3,西,14.6,,0,0,2,3.5
198,2024-05-20T03:17:00,0.3,南西,1.3,西,14.6,,0,0,2,3.5
199,2024-05-20T03:18:00,0.3,南西,0.9,南西,14.7,,0,0,2,3.5
200,2024-05-20T03:19:00,0.3,南西,0.9,南西,14.6,,0,0,2,3.5
201,2024-05-20T03:20:00,0.3,南西,0.9,南西,14.6,,0,0,2,3.5
202,2024-05-20T03:21:00,0.3,南西,0.7,西南西,14.6,,0,0,2,3.5
203,2024-05-20T03:22:00,0.2,静穏,0.7,西南西,14.7,,0,0,2,3.5
204,2024-05-20T03:23:00,0.3,南西,0.8,西南西,14.7,,0,0,2,3.5
205,2024-05-20T03:24:00,0.3,西南西,0.8,西南西,14.7,,0,0,2,3.5
206,2024-05-20T03:25:00,0.3,南西,0.8,西南西,14.7,,0,0,2,3.5
207,2024-05-20T03:26:00,0.3,南西,0.8,西南西,14.5,,0,0,2,3.5
208,2024-05-20T03:27:00,0.3,南西,0.8,西南西,14.6,,0,0,2,3.5
209,2024-05-20T03:28:00,0.4,南西,0.8,西南西,14.7,,0,0,2,3.5
210,2024-05-20T03:29:00,0.4,南西,0.8,西南西,14.6,,0,0,2,3.5
211,2024-05-20T03:30:00,0.3,南西,0.8,西南西,14.5,,0,0,2,3.5
212,2024-05-20T03:31:00,0.3,南西,0.8,西南西,14.7,,0,0,2,3.5
213,2024-05-20T03:32:00,0.3,南西,0.8,西南西,14.6,,0,0,2,3.5
214,2024-05-20T03:33:00,0.3,南西,0.8,南西,14.5,,0,0,2,3.5
215,2024-05-20T03:34:00,0.2,静穏,0.9,南,14.5,,0,0,2,3.5
216,2024-05-20T03:35:00,0.3,南西,1,南,14.5,,0,0,2,3.5
217,2024-05-20T03:36:00,0.3,南西,1,南,14.3,,0,0,2,3.5
218,2024-05-20T03:37:00,0.3,南西,1,南,14.5,,0,0,2,3.5
219,2024-05-20T03:38:00,0.3,南南西,1,南,14.6,,0,0,2,3.5
220,2024-05-20T03:39:00,0.3,南南西,1,南,14.5,,0,0,2,3.5
221,2024-05-20T03:40:00,0.2,静穏,1,南,14.6,,0,0,2,3.5
222,2024-05-20T03:41:00,0.2,静穏,1,南,14.6,,0,0,2,3.5
223,2024-05-20T03:42:00,0.2,静穏,1,南,14.6,,0,0,2,3.5
224,2024-05-20T03:43:00,0.3,南西,1,南,14.6,,0,0,2,3.5
225,2024-05-20T03:44:00,0.3,南西,1,南,14.5,,0,0,2,3.5
226,2024-05-20T03:45:00,0.2,静穏,0.9,西,14.5,,0,0,2,3.5
227,2024-05-20T03:46:00,0.2,静穏,0.9,西,14.7,,0,0,2,3.5
228,2024-05-20T03:47:00,0.1,静穏,0.9,西,14.6,,0,0,2,3.5
229,2024-05-20T03:48:00,0.1,静穏,0.9,西,14.6,,0,0,2,3.5
230,2024-05-20T03:49:00,0.1,静穏,0.9,西,14.7,,0,0,2,3.5
231,2024-05-20T03:50:00,0.1,静穏,0.9,西,14.7,,0,0,2,3.5
232,2024-05-20T03:51:00,0.1,静穏,0.9,西,14.5,,0,0,2,3.5
233,2024-05-20T03:52:00,0.1,静穏,0.9,西,14.4,,0,0,2,3.5
234,2024-05-20T03:53:00,0.1,静穏,0.7,西北西,14.4,,0,0,2,3.5
235,2024-05-20T03:54:00,0.1,静穏,0.8,南東,14.3,,0,0,2,3.5
236,2024-05-20T03:55:00,0.2,静穏,1.4,東,14.3,,0,0,2,3.5
237,2024-05-20T03:56:00,0.3,東南東,1.4,東,14.3,,0,0,2,3.5
238,2024-05-20T03:57:00,0.3,東南東,1.4,東,14.3,,0,0,2,3.5
239,2024-05-20T03:58:00,0.4,東南東,1.4,東,14.3,,0,0,2,3.5
240,2024-05-20T03:59:00,0.4,東,1.4,東,14.3,,0,0,2,3.5
241,2024-05-20T04:00:00,0.4,東,1.4,東,14.4,,0,0,2,3.5
242,2024-05-20T04:01:00,0.4,東北東,1.4,東,14.3,,0,0,2,3.5
243,2024-05-20T04:02:00,0.5,東北東,1.4,東,14.2,,0,0,2,3.5
244,2024-05-20T04:03:00,0.5,東北東,1.4,東,14.3,,0,0,2,3.5
245,2024-05-20T04:04:00,0.4,東北東,1.4,東,14.3,,0,0,2,3.5
246,2024-05-20T04:05:00,0.3,東北東,1.3,東,14.2,,0,0,2,3.5
247,2024-05-20T04:06:00,0.3,東北東,0.9,北東,14.3,,0,0,2,3.5
248,2024-05-20T04:07:00,0.3,東北東,0.8,東南東,14.3,,0,0,2,3.5
249,2024-05-20T04:08:00,0.3,東,0.8,東南東,14.3,,0,0,2,3.5
250,2024-05-20T04:09:00,0.3,東,0.8,東南東,14.2,,0,0,2,3.5
